When you browse on this site, cookies collect data to enhance your experience and personalize the content and advertising you see.
Visit our Privacy Policy to learn more. By continuing to use the site, you agree to this use of cookies and data.
  • In Latvia
  • List of Countries
  • For 7 days
  • Water Temperature
  • Satellite Maps
  • Weather Map
  • Weather Widgets
  • user-avatar
    Login

    Hourly Weather Lecco

    Today, 19 December, Wednesday

    Time Temperature Precipitation Wind Pressure Humidity
    00:00 +4°C° 0 mm 1 mps 748 mmHg 46%
    01:00 +3°C° 0 mm 1 mps 748 mmHg 47%
    02:00 +4°C° 0 mm 1 mps 748 mmHg 47%
    03:00 +4°C° 0 mm 1 mps 747 mmHg 48%
    04:00 +4°C° 0 mm 1 mps 747 mmHg 48%
    05:00 +4°C° 0 mm 1 mps 747 mmHg 49%
    06:00 +4°C° 0 mm 1 mps 747 mmHg 51%
    07:00 +3°C° 0 mm 0 mps 746 mmHg 60%
    08:00 +5°C° 0 mm 1 mps 746 mmHg 60%
    09:00 +5°C° 0 mm 1 mps 746 mmHg 60%
    10:00 +5°C° 0 mm 1 mps 746 mmHg 59%
    11:00 +6°C° 0 mm 1 mps 746 mmHg 61%
    12:00 +6°C° 0 mm 1 mps 746 mmHg 62%
    13:00 +7°C° 0 mm 1 mps 745 mmHg 64%
    14:00 +6°C° 0.3 mm 1 mps 745 mmHg 70%
    15:00 +6°C° 0.3 mm 1 mps 744 mmHg 76%
    16:00 +5°C° 0.3 mm 1 mps 744 mmHg 82%
    17:00 +5°C° 0.7 mm 1 mps 744 mmHg 85%
    18:00 +5°C° 0.7 mm 1 mps 744 mmHg 89%
    19:00 +5°C° 0.7 mm 1 mps 744 mmHg 92%
    20:00 +5°C° 1.5 mm 1 mps 744 mmHg 93%
    21:00 +4°C° 1.5 mm 0 mps 744 mmHg 94%
    22:00 +4°C° 1.5 mm 0 mps 744 mmHg 95%
    23:00 +4°C° 1.1 mm 0 mps 744 mmHg 95%

    Tomorrow, 20 December, Thursday

    Time Temperature Precipitation Wind Pressure Humidity
    00:00 +5°C° 1.1 mm 1 mps 744 mmHg 96%
    01:00 +5°C° 1.1 mm 1 mps 744 mmHg 96%
    02:00 +5°C° 0.2 mm 1 mps 744 mmHg 96%
    03:00 +3°C° 0.2 mm 0 mps 744 mmHg 96%
    04:00 +3°C° 0.2 mm 0 mps 744 mmHg 95%
    05:00 +4°C° 0 mm 1 mps 744 mmHg 95%
    06:00 +4°C° 0 mm 1 mps 745 mmHg 94%
    07:00 +3°C° 0 mm 1 mps 745 mmHg 94%
    08:00 +4°C° 0 mm 1 mps 745 mmHg 91%
    09:00 +5°C° 0 mm 1 mps 746 mmHg 89%
    10:00 +6°C° 0 mm 1 mps 746 mmHg 86%
    11:00 +6°C° 0 mm 1 mps 745 mmHg 86%
    12:00 +7°C° 0 mm 1 mps 745 mmHg 86%
    13:00 +8°C° 0 mm 1 mps 745 mmHg 85%
    14:00 +7°C° 0 mm 1 mps 745 mmHg 88%
    15:00 +6°C° 0 mm 1 mps 745 mmHg 91%
    16:00 +6°C° 0 mm 1 mps 745 mmHg 93%
    17:00 +5°C° 0 mm 1 mps 746 mmHg 92%
    18:00 +4°C° 0 mm 1 mps 747 mmHg 91%
    19:00 +4°C° 0 mm 1 mps 747 mmHg 90%
    20:00 +4°C° 0 mm 1 mps 748 mmHg 88%
    21:00 +4°C° 0 mm 1 mps 748 mmHg 87%
    22:00 +3°C° 0 mm 1 mps 749 mmHg 85%
    23:00 +3°C° 0 mm 1 mps 749 mmHg 84%

    Day after tomorrow, 21 December, Friday

    Time Temperature Precipitation Wind Pressure Humidity
    00:00 +3°C° 0 mm 1 mps 749 mmHg 83%
    01:00 +3°C° 0 mm 1 mps 749 mmHg 82%
    02:00 +3°C° 0 mm 1 mps 749 mmHg 82%
    03:00 +3°C° 0 mm 1 mps 749 mmHg 81%
    04:00 +3°C° 0 mm 1 mps 749 mmHg 81%
    05:00 +3°C° 0 mm 1 mps 749 mmHg 81%
    06:00 +3°C° 0 mm 1 mps 748 mmHg 81%
    07:00 +3°C° 0 mm 1 mps 748 mmHg 80%
    08:00 +4°C° 0 mm 1 mps 748 mmHg 79%
    09:00 +5°C° 0 mm 1 mps 748 mmHg 77%
    10:00 +6°C° 0 mm 1 mps 748 mmHg 76%
    11:00 +7°C° 0 mm 1 mps 748 mmHg 74%
    12:00 +7°C° 0 mm 1 mps 747 mmHg 72%
    13:00 +8°C° 0 mm 1 mps 746 mmHg 71%
    14:00 +8°C° 0 mm 1 mps 746 mmHg 73%
    15:00 +7°C° 0 mm 1 mps 746 mmHg 75%
    16:00 +7°C° 0 mm 1 mps 746 mmHg 78%
    17:00 +6°C° 0 mm 1 mps 746 mmHg 77%
    18:00 +6°C° 0 mm 1 mps 746 mmHg 75%
    19:00 +5°C° 0 mm 1 mps 746 mmHg 74%
    20:00 +5°C° 0 mm 1 mps 746 mmHg 74%
    21:00 +5°C° 0 mm 1 mps 746 mmHg 73%
    22:00 +6°C° 0 mm 1 mps 746 mmHg 73%
    23:00 +6°C° 0 mm 1 mps 746 mmHg 73%

    22 December, Saturday

    Time Temperature Precipitation Wind Pressure Humidity
    00:00 +6°C° 0 mm 1 mps 746 mmHg 73%
    01:00 +6°C° 0 mm 1 mps 746 mmHg 73%
    02:00 +6°C° 0 mm 1 mps 745 mmHg 74%
    03:00 +6°C° 0 mm 1 mps 745 mmHg 75%
    04:00 +6°C° 0 mm 1 mps 745 mmHg 76%
    05:00 +6°C° 0 mm 1 mps 745 mmHg 77%
    06:00 +6°C° 0 mm 1 mps 745 mmHg 78%
    07:00 +6°C° 0 mm 1 mps 745 mmHg 79%
    08:00 +7°C° 0 mm 1 mps 745 mmHg 79%
    09:00 +8°C° 0 mm 1 mps 745 mmHg 79%
    10:00 +9°C° 0 mm 1 mps 745 mmHg 79%
    11:00 +10°C° 0 mm 1 mps 745 mmHg 79%
    12:00 +11°C° 0 mm 1 mps 744 mmHg 79%
    13:00 +12°C° 0 mm 1 mps 744 mmHg 79%
    14:00 +11°C° 0 mm 1 mps 744 mmHg 82%
    15:00 +11°C° 0 mm 1 mps 745 mmHg 84%
    16:00 +9°C° 0 mm 2 mps 745 mmHg 86%
    17:00 +8°C° 0 mm 2 mps 745 mmHg 86%
    18:00 +8°C° 0 mm 2 mps 746 mmHg 86%
    19:00 +7°C° 0 mm 2 mps 746 mmHg 86%
    20:00 +7°C° 0 mm 2 mps 746 mmHg 84%
    21:00 +7°C° 0 mm 2 mps 746 mmHg 83%
    22:00 +6°C° 0 mm 2 mps 747 mmHg 81%
    23:00 +6°C° 0 mm 2 mps 747 mmHg 81%

    23 December, Sunday

    Time Temperature Precipitation Wind Pressure Humidity
    00:00 +6°C° 0 mm 2 mps 746 mmHg 80%
    01:00 +6°C° 0 mm 2 mps 746 mmHg 79%
    02:00 +6°C° 0 mm 2 mps 746 mmHg 80%
    03:00 +7°C° 0 mm 1 mps 746 mmHg 80%
    04:00 +7°C° 0 mm 1 mps 746 mmHg 80%
    05:00 +7°C° 0 mm 1 mps 746 mmHg 81%
    06:00 +7°C° 0 mm 1 mps 746 mmHg 81%
    07:00 +7°C° 0 mm 1 mps 746 mmHg 82%
    08:00 +8°C° 0 mm 1 mps 747 mmHg 81%
    09:00 +9°C° 0 mm 1 mps 747 mmHg 81%
    10:00 +9°C° 0 mm 1 mps 747 mmHg 81%
    11:00 +10°C° 0 mm 1 mps 747 mmHg 81%
    12:00 +11°C° 0 mm 1 mps 747 mmHg 80%
    13:00 +12°C° 0 mm 1 mps 746 mmHg 80%
    14:00 +11°C° 0 mm 1 mps 746 mmHg 82%
    15:00 +11°C° 0 mm 1 mps 746 mmHg 84%
    16:00 +10°C° 0 mm 1 mps 746 mmHg 86%
    17:00 +10°C° 0 mm 1 mps 746 mmHg 86%
    18:00 +9°C° 0 mm 1 mps 746 mmHg 86%
    19:00 +9°C° 0 mm 1 mps 746 mmHg 86%
    20:00 +9°C° 0 mm 1 mps 747 mmHg 85%
    21:00 +9°C° 0 mm 1 mps 747 mmHg 85%
    22:00 +9°C° 0 mm 1 mps 747 mmHg 85%
    23:00 +8°C° 0 mm 1 mps 747 mmHg 86%

    24 December, Monday

    Time Temperature Precipitation Wind Pressure Humidity
    00:00 +8°C° 0 mm 1 mps 747 mmHg 86%
    01:00 +8°C° 0 mm 1 mps 747 mmHg 87%
    02:00 +8°C° 0 mm 1 mps 747 mmHg 87%
    03:00 +8°C° 0 mm 1 mps 747 mmHg 87%
    04:00 +8°C° 0 mm 1 mps 747 mmHg 88%
    05:00 +8°C° 0 mm 1 mps 747 mmHg 87%
    06:00 +8°C° 0 mm 1 mps 747 mmHg 87%
    07:00 +8°C° 0 mm 1 mps 746 mmHg 87%
    08:00 +9°C° 0 mm 1 mps 747 mmHg 87%
    09:00 +10°C° 0 mm 1 mps 747 mmHg 86%
    10:00 +10°C° 0 mm 1 mps 747 mmHg 86%
    11:00 +11°C° 0 mm 1 mps 746 mmHg 84%
    12:00 +12°C° 0 mm 1 mps 746 mmHg 83%
    13:00 +13°C° 0 mm 1 mps 746 mmHg 82%
    14:00 +12°C° 0 mm 1 mps 746 mmHg 84%
    15:00 +12°C° 0 mm 1 mps 746 mmHg 87%
    16:00 +10°C° 0 mm 2 mps 746 mmHg 89%
    17:00 +9°C° 0 mm 2 mps 747 mmHg 89%
    18:00 +9°C° 0 mm 2 mps 747 mmHg 90%
    19:00 +8°C° 0 mm 2 mps 748 mmHg 90%
    20:00 +8°C° 0 mm 2 mps 748 mmHg 90%
    21:00 +8°C° 0 mm 2 mps 748 mmHg 89%
    22:00 +8°C° 0 mm 2 mps 749 mmHg 89%
    23:00 +7°C° 0 mm 2 mps 749 mmHg 89%
    Show more